Wind_Speed
16 18 16 3 4 3 3 2 1 1 1 3 2 1 2 1 2 4 10 8 2 2 2 0 5 6 4 4 5 5 4 1 1 1 2 2 1 7 8 11 21 20 20 20 18 20 20 22 21 20 21 19 19 18 18 18 17 16 16 17 17 16 16 15 15 15 15 15 15 15 15 14 14 14 14 13 12 12 12 12 12 12 12 13 13 14 15 15 16 16 15 14 14 14 15 15 13
16 17 16 2 6 2 1 1 1 1 1 3 1 1 2 2 2 4 8 7 4 4 3 2 6 7 6 8 8 6 3 2 2 2 2 2 5 7 8 15 20 18 20 19 17 18 19 21 21 21 20 20 19 18 18 18 17 16 17 17 16 16 16 15 15 15 15 15 14 14 13 13 13 13 13 12 12 12 12 13 12 12 13 13 13 14 15 15 15 15 14 13 13 13 13 12 11
15 15 15 1 5 1 1 2 1 1 0 3 2 1 0 1 4 3 4 5 6 5 2 2 5 5 4 6 4 2 2 2 2 2 1 6 8 7 11 17 18 17 19 17 17 16 17 20 20 20 20 20 19 18 18 17 17 16 17 17 16 16 16 15 14 15 15 14 14 13 12 12 12 12 12 11 11 11 11 11 10 12 13 13 13 13 14 14 14 14 13 13 13 12 12 11 11
12 13 15 3 3 2 1 2 2 0 1 1 2 1 2 2 3 2 5 6 4 2 1 2 3 3 1 3 2 1 3 1 3 4 4 7 6 9 15 16 16 16 16 16 16 15 16 20 20 19 19 20 18 18 17 16 17 16 17 17 16 16 16 15 15 14 14 13 13 12 12 11 11 11 11 10 9 9 9 8 9 11 11 12 13 13 13 13 13 13 13 12 12 11 11 10 9
8 10 14 4 1 2 1 2 2 1 1 2 3 2 3 1 2 2 6 7 3 3 1 1 1 3 3 5 1 0 2 1 3 5 5 7 7 13 17 15 16 16 15 15 16 15 16 20 20 18 19 19 18 17 16 16 17 16 16 16 16 16 16 15 15 14 13 13 12 12 11 10 10 10 10 8 8 7 7 8 10 12 11 11 12 13 13 13 12 12 12 11 11 10 9 8 8
6 6 11 7 2 0 1 1 0 2 1 2 2 3 2 1 1 1 7 8 2 4 1 1 1 3 5 4 2 2 2 3 2 5 6 8 11 15 16 16 16 15 15 15 16 15 16 20 19 18 19 19 18 17 16 16 16 16 15 15 16 16 16 15 14 13 12 12 11 11 10 10 9 9 8 7 6 6 7 9 11 12 12 12 12 11 12 12 12 11 11 10 10 8 7 7 6
8 4 5 5 1 0 1 1 1 2 0 2 1 3 2 3 1 3 7 6 1 2 1 1 3 4 4 2 2 3 4 3 1 4 9 11 14 17 16 16 15 15 14 14 15 15 17 20 18 18 19 18 17 16 15 15 15 15 14 15 15 15 15 14 13 13 12 11 10 10 9 8 8 7 7 6 5 5 7 8 10 11 12 13 12 11 11 11 11 10 10 9 8 7 6 6 6
9 4 1 1 1 2 1 1 1 1 0 1 1 2 2 2 1 2 5 4 3 1 0 2 4 1 2 2 2 3 5 2 2 6 12 13 16 17 16 16 15 16 15 14 15 16 18 19 17 18 18 17 15 15 15 14 14 14 14 14 14 14 14 14 13 12 11 10 9 8 8 7 7 7 6 6 7 6 7 8 9 10 12 12 12 11 10 10 9 9 9 8 7 6 6 6 6
8 4 1 1 1 1 1 1 2 2 2 2 1 3 1 1 1 0 4 3 3 1 0 2 3 2 4 3 0 2 5 3 3 9 13 14 16 16 15 15 15 17 17 15 17 18 17 18 18 18 18 16 15 15 14 14 14 13 13 13 13 12 12 12 12 11 10 9 8 7 7 6 6 7 6 7 8 8 9 9 9 10 11 12 12 11 10 10 9 8 8 7 7 6 6 6 6
5 4 0 1 1 1 1 1 1 2 2 3 1 2 2 2 2 3 5 4 2 2 1 2 1 3 6 3 0 1 2 3 8 12 13 14 15 15 15 14 14 16 17 16 18 17 16 18 19 18 17 15 15 15 14 14 13 13 12 12 11 11 11 10 10 9 8 8 8 7 6 6 6 7 7 8 9 9 10 10 10 11 11 11 11 11 11 10 9 8 7 7 7 6 6 5 5
1 2 0 1 1 2 2 2 1 3 3 4 2 4 5 5 4 3 4 4 2 2 1 3 3 7 6 2 1 1 1 5 10 13 14 14 14 14 15 14 14 15 15 17 18 15 16 19 19 19 18 16 16 15 14 13 13 13 11 10 10 10 10 9 9 9 8 8 8 7 7 7 7 7 7 8 9 10 11 11 12 11 11 10 11 11 11 10 9 8 7 6 6 5 5 4 3
1 1 1 1 2 3 3 2 2 4 4 5 2 4 5 7 6 4 4 4 3 3 3 3 5 7 5 2 1 1 4 7 9 12 14 14 14 14 14 14 13 15 16 17 15 15 18 19 19 18 17 17 16 15 14 13 13 12 10 9 9 9 9 9 9 9 10 10 10 10 10 10 9 8 8 9 10 11 12 13 12 11 11 10 10 10 10 10 9 8 7 6 5 5 5 4 3
1 2 1 2 2 2 3 2 2 2 3 4 2 3 3 6 6 5 5 3 2 2 1 2 6 6 3 3 0 2 6 8 10 13 14 14 14 14 13 13 13 15 16 16 14 17 19 18 18 17 16 16 15 15 14 13 13 11 9 9 9 8 8 9 10 10 11 12 13 13 13 13 12 11 9 9 9 10 12 12 12 11 10 9 9 9 9 9 9 8 7 6 5 4 4 4 3
2 2 2 2 0 2 3 2 2 2 3 3 2 3 2 2 4 5 2 1 2 2 1 2 6 4 3 3 1 4 8 11 13 13 14 14 14 14 14 14 14 16 16 15 16 19 19 17 17 16 16 15 15 15 13 13 11 9 9 9 8 8 9 10 11 11 13 14 14 13 13 14 14 14 12 11 10 9 10 10 11 10 10 9 8 8 8 8 7 7 6 5 5 4 3 3 3
2 2 1 2 2 2 3 2 3 4 3 3 2 3 2 1 1 2 1 3 3 3 2 3 2 1 3 6 3 6 11 15 16 14 15 14 14 14 13 13 14 15 15 16 17 20 19 17 16 15 15 14 14 14 13 13 10 9 9 9 8 8 10 12 13 12 13 14 14 13 12 12 13 14 14 13 11 10 9 9 9 9 8 8 7 7 6 6 5 5 5 4 4 3 2 2 1
1 2 1 3 4 4 4 3 3 3 3 3 2 3 3 2 2 1 3 2 4 3 1 2 2 3 2 4 3 10 17 19 17 16 16 15 14 13 13 13 13 14 16 17 19 20 17 16 16 15 14 14 14 14 13 12 10 10 10 9 8 8 11 13 14 14 14 14 13 13 13 13 12 13 14 13 13 11 10 9 7 7 6 6 5 5 4 4 3 3 3 2 2 2 1 1 1
1 2 3 4 5 6 6 5 4 3 3 4 3 1 3 2 2 2 4 4 7 4 3 3 4 4 1 2 9 19 22 20 19 18 18 17 15 13 13 13 14 16 17 18 20 19 16 16 16 15 14 14 14 14 12 11 11 11 10 8 7 9 11 13 15 14 13 13 13 15 15 14 13 13 12 11 12 12 11 10 8 7 6 5 4 3 3 2 2 1 1 1 1 1 0 0 1
3 3 5 6 5 6 7 8 6 3 3 5 3 3 4 3 4 5 5 8 8 5 4 3 6 7 6 9 17 22 22 22 21 20 20 18 15 14 14 15 16 17 17 18 18 17 17 17 17 16 15 14 15 14 12 11 11 10 9 8 8 9 11 12 13 13 12 13 14 14 13 13 13 13 10 9 10 10 10 11 10 9 7 6 6 5 5 4 3 3 2 2 1 2 2 1 1
4 3 5 7 6 6 7 10 8 4 5 5 3 3 3 2 5 6 4 6 7 6 3 2 4 7 8 13 19 22 22 22 22 21 21 19 17 17 17 17 19 20 20 21 20 18 17 17 17 16 15 14 15 14 12 11 10 9 8 8 9 10 11 11 10 12 13 13 13 12 11 11 11 10 9 8 7 8 9 10 10 9 8 7 7 6 6 5 5 4 3 4 3 3 3 2 1
4 3 7 6 6 7 6 9 9 6 5 6 4 2 2 2 3 4 5 7 7 5 3 3 3 6 9 13 18 21 21 21 22 21 20 19 19 20 21 22 24 25 25 24 21 19 18 18 17 16 15 15 15 13 12 12 10 9 8 7 9 10 12 11 9 11 12 11 12 12 11 10 10 9 9 8 7 7 7 7 8 7 7 6 6 6 5 5 5 4 4 4 3 3 3 3 2
4 5 7 6 7 9 8 9 9 8 5 5 3 2 2 3 2 4 7 6 4 5 7 7 8 12 14 15 18 21 21 21 22 21 19 20 20 21 22 22 22 21 22 22 20 19 18 17 16 15 15 15 14 13 12 12 10 9 7 7 9 11 13 12 9 9 10 10 10 10 11 10 10 9 9 8 6 5 5 5 6 6 6 5 5 5 4 4 4 4 4 4 4 3 3 3 3
4 5 4 6 9 9 8 9 9 6 4 3 2 3 2 3 2 4 7 5 2 3 8 10 10 14 18 18 20 20 20 20 21 22 20 20 22 21 18 16 15 16 18 17 17 17 17 17 16 16 15 15 14 12 12 11 10 8 7 7 10 11 12 11 9 8 8 7 6 7 10 10 9 8 7 6 5 4 4 4 4 5 5 4 4 3 3 3 4 4 5 5 4 4 4 4 5
5 6 4 6 10 9 6 7 9 6 6 6 4 4 3 4 3 2 4 4 2 3 7 10 10 15 18 19 20 20 19 20 22 24 23 23 24 19 14 13 13 15 15 14 14 15 16 16 16 16 14 14 14 11 11 11 10 8 7 8 10 10 11 10 8 7 6 5 4 5 8 8 7 7 6 5 4 4 3 3 4 4 5 4 4 3 3 4 4 4 5 5 4 4 4 5 5
7 6 6 7 9 9 6 6 8 7 9 6 3 4 5 5 4 3 3 2 4 7 7 8 10 13 16 17 19 20 20 22 24 25 24 22 18 13 12 13 11 13 14 12 12 13 15 16 15 15 14 14 13 11 11 11 9 9 8 9 10 11 10 8 6 5 4 4 4 5 6 6 6 5 5 4 3 3 2 3 3 4 4 4 4 4 4 5 5 5 5 4 4 4 4 5 5
10 7 6 6 6 8 6 3 5 6 6 3 2 4 5 4 4 4 3 2 5 5 6 9 11 12 14 16 19 19 19 21 23 23 21 14 10 11 12 12 11 12 13 12 12 12 15 16 15 15 15 14 13 12 11 10 9 9 8 8 9 10 9 7 6 4 3 3 4 4 4 4 4 4 4 3 2 2 2 2 3 3 4 4 4 4 4 5 6 5 5 4 5 5 5 6 6
10 8 5 5 6 7 8 5 4 5 3 4 5 5 4 4 5 4 2 3 4 6 9 11 13 13 14 15 17 19 18 21 23 22 18 11 7 11 13 12 12 12 12 12 12 12 14 16 15 15 15 14 13 12 11 10 9 9 8 7 7 8 8 6 5 3 3 3 3 2 3 3 3 3 2 2 1 1 2 2 3 3 3 4 3 3 4 5 5 5 4 4 5 5 6 7 7
4 9 6 4 5 5 6 6 5 3 2 5 7 5 4 4 4 3 4 6 8 10 11 12 13 14 15 15 16 17 18 21 22 18 15 11 8 10 12 12 12 12 12 13 13 13 14 15 15 16 16 14 13 12 11 10 9 8 8 8 7 6 7 6 5 4 3 3 2 1 1 2 3 2 1 1 1 2 3 3 3 3 3 3 3 3 4 5 4 4 4 5 5 6 7 8 8
3 8 7 5 4 3 4 5 5 3 3 6 7 5 4 4 4 5 8 10 11 12 12 13 14 13 14 16 15 14 16 20 20 16 14 13 10 10 11 11 13 13 12 14 14 14 16 16 16 16 16 15 13 12 11 10 9 9 9 8 7 7 8 7 6 5 4 3 1 0 1 2 3 2 0 1 3 4 4 4 4 3 3 3 3 3 3 4 4 4 5 5 6 7 7 8 8
3 6 7 7 5 8 9 6 5 6 5 6 7 6 6 8 6 6 11 13 13 13 13 14 13 12 13 14 13 13 16 18 19 18 17 14 10 10 10 11 13 14 13 15 14 15 16 18 17 17 16 15 13 12 10 11 10 10 10 9 9 9 8 8 7 6 5 3 2 1 1 2 2 1 1 2 4 4 4 4 4 3 3 2 3 3 4 4 3 3 5 5 6 7 8 8 8
4 5 4 5 5 10 13 9 6 8 6 7 9 8 9 9 5 5 11 15 15 13 13 13 13 12 12 13 13 13 15 17 19 19 17 11 8 9 11 11 13 14 15 16 16 16 17 18 18 17 16 15 13 12 11 11 10 10 11 10 10 10 9 8 7 6 5 4 2 1 1 1 0 0 2 3 4 5 5 5 4 3 3 3 3 4 4 3 3 3 4 6 6 7 9 9 9
6 5 3 5 6 6 10 12 11 10 4 8 11 9 6 5 4 8 13 15 17 15 14 14 13 13 13 13 14 13 15 18 19 18 13 8 7 9 10 11 13 14 15 17 18 18 17 18 18 17 16 15 13 12 11 11 11 12 12 12 11 9 8 7 7 6 5 4 3 1 1 1 1 2 3 3 5 5 5 5 4 3 3 3 3 4 3 3 4 4 5 6 6 7 9 9 9
6 6 6 8 9 4 6 10 15 14 4 8 12 7 4 5 5 11 13 14 16 14 14 16 15 15 15 13 14 14 13 17 19 18 12 7 7 8 10 11 13 15 15 17 18 18 16 16 18 17 16 15 13 12 11 11 12 13 13 12 10 7 8 8 7 6 5 4 3 2 2 2 2 3 4 4 5 5 5 4 4 3 3 4 3 4 4 4 4 5 5 5 6 7 7 8 8
6 9 9 10 12 7 5 5 12 15 7 8 13 6 1 4 7 12 13 15 15 13 14 16 17 16 16 14 14 13 12 13 16 17 12 8 8 9 10 11 12 14 14 16 16 16 16 15 17 17 16 16 14 12 11 9 9 12 12 10 8 7 8 9 8 7 6 4 3 3 3 3 3 4 4 4 5 5 4 4 4 4 3 4 4 4 4 4 4 5 5 6 6 7 6 7 8
8 10 8 8 11 9 7 4 5 13 12 10 13 9 2 2 7 13 14 16 16 14 15 16 16 14 15 14 13 13 12 13 14 17 13 9 10 9 10 11 11 13 13 14 14 14 15 15 17 18 18 17 14 13 13 11 9 10 10 9 9 10 10 10 9 7 6 5 5 5 4 4 4 5 5 5 5 4 4 4 4 3 3 3 3 4 4 4 4 4 5 6 6 6 5 6 8
10 12 8 5 7 8 8 5 5 13 15 12 11 12 7 2 7 13 14 16 17 16 14 14 14 14 13 14 14 14 14 15 14 13 12 10 10 10 10 10 11 13 14 14 14 15 15 16 18 19 19 18 15 14 15 15 13 11 10 11 11 12 12 11 10 8 7 6 6 6 5 5 6 7 7 6 5 4 4 4 3 3 3 3 3 3 3 3 4 4 5 6 6 6 4 4 8
7 8 4 4 5 6 6 3 6 13 13 13 13 14 11 7 10 13 14 15 15 14 12 11 12 12 12 13 13 14 15 15 11 9 10 10 11 10 10 10 11 14 15 15 15 16 17 18 19 19 21 20 18 16 15 15 14 12 12 13 14 14 14 13 11 10 8 6 6 7 7 8 8 7 6 4 3 3 3 3 2 2 2 2 3 3 3 3 3 4 4 5 5 5 3 6 9
7 7 4 5 6 5 5 4 5 10 10 11 12 12 12 10 11 13 14 14 14 14 14 13 13 11 11 13 14 14 15 12 8 8 9 10 11 11 10 11 13 15 17 17 16 17 19 20 19 20 22 21 19 19 17 17 16 15 15 16 17 17 16 16 14 10 8 7 8 9 8 8 7 5 4 3 2 2 2 2 2 2 2 3 4 4 4 4 4 4 4 4 3 3 4 8 11
6 8 8 7 7 5 7 8 5 7 8 5 6 9 10 10 11 12 13 14 15 15 16 16 16 14 12 14 15 15 13 9 8 8 9 10 11 11 11 13 15 17 18 18 18 17 19 19 19 21 22 21 21 21 19 19 18 17 18 18 19 18 18 18 16 12 10 9 10 10 9 8 6 4 4 3 2 1 1 1 1 2 3 4 5 5 5 5 5 4 3 2 3 5 8 8 13
2 7 8 6 7 5 5 5 2 4 6 2 5 9 7 6 9 11 13 14 14 15 15 15 16 16 14 15 15 14 12 10 10 9 9 11 11 12 13 14 16 18 18 19 19 17 17 18 18 19 19 20 22 22 19 19 17 16 18 19 19 19 18 18 17 14 12 11 11 11 10 8 6 4 4 3 1 1 1 1 2 3 4 5 5 6 6 6 5 3 1 3 5 8 11 9 10
0 4 7 6 6 6 5 4 2 2 2 2 7 6 2 3 7 10 12 13 12 13 13 13 13 15 15 15 12 12 13 13 11 9 10 12 12 14 15 15 17 18 17 18 18 17 18 17 17 19 17 17 20 19 18 19 17 16 17 17 19 19 18 18 17 16 15 13 12 10 8 7 5 4 3 1 1 1 2 2 2 3 4 4 5 5 5 5 3 1 3 5 6 7 10 13 9
2 2 4 5 8 6 3 5 5 4 2 4 9 4 1 5 9 10 9 9 10 10 10 11 12 12 12 12 12 12 13 13 12 11 11 11 13 16 16 16 18 19 19 18 17 18 18 16 19 20 19 18 18 19 21 21 20 19 18 17 18 19 19 18 18 17 15 13 12 9 7 6 4 2 1 0 1 1 1 2 2 2 3 3 4 4 3 1 1 3 5 6 7 8 9 13 15
3 4 5 4 8 6 6 10 9 5 4 6 8 5 4 6 10 12 10 9 10 9 10 12 11 10 10 11 13 13 12 12 12 11 11 12 13 16 17 18 19 19 19 17 17 19 18 18 21 22 21 19 17 20 24 23 22 22 21 21 20 20 19 17 17 16 14 12 11 9 7 4 3 1 1 1 1 1 1 1 1 1 2 2 1 0 2 4 5 7 7 7 8 10 11 12 15
4 4 6 4 5 6 9 10 9 5 4 5 6 8 4 4 9 13 12 13 13 12 13 14 11 10 11 11 12 12 12 12 11 11 12 12 14 17 18 20 19 18 17 16 16 18 20 22 23 23 21 17 17 21 24 23 24 23 23 22 21 21 19 16 15 15 13 11 9 8 6 3 3 2 2 2 2 2 2 2 2 1 1 2 3 5 7 8 8 8 8 8 8 10 11 10 10
5 3 7 8 5 5 7 6 5 2 2 3 4 6 4 3 7 11 14 15 16 15 14 14 14 14 14 14 13 13 13 11 11 11 12 13 15 17 19 20 19 18 17 16 17 18 22 24 25 22 18 15 18 22 22 23 23 21 20 20 20 20 19 18 16 14 12 10 9 8 5 3 3 4 3 3 4 4 3 3 3 3 5 7 8 9 11 11 11 10 9 9 10 11 13 13 11
4 4 6 7 6 5 4 3 2 1 2 6 7 5 5 5 2 7 13 14 16 18 18 17 18 19 18 17 17 16 14 12 12 12 12 13 16 18 19 19 18 18 17 18 19 19 21 24 25 22 17 17 20 20 20 21 20 18 19 21 21 20 20 20 18 15 13 10 8 7 5 4 5 5 5 5 5 5 5 5 5 6 9 11 12 13 13 13 12 12 12 13 15 16 18 19 18
5 6 5 4 4 4 2 1 2 2 3 9 11 10 8 5 3 6 11 13 15 16 16 18 19 21 20 17 16 15 14 13 13 13 13 14 18 20 20 20 18 17 16 17 19 18 20 24 25 22 20 21 21 17 17 18 18 19 20 22 23 22 21 21 20 17 14 10 8 6 5 6 6 6 6 7 6 6 6 6 7 9 11 13 14 14 14 14 13 14 15 17 19 21 22 24 24
7 8 6 3 3 2 1 0 1 2 6 8 11 13 9 6 4 8 10 10 13 13 12 15 18 19 20 17 14 14 14 14 14 14 13 14 19 21 21 21 19 16 16 18 19 20 22 24 25 25 23 23 19 14 14 17 19 21 21 22 22 21 22 22 20 18 14 11 8 7 7 7 7 8 8 8 7 7 7 8 10 11 13 14 14 15 15 15 16 17 18 19 21 23 24 25 26
8 9 10 5 3 2 2 1 1 5 7 3 6 10 8 8 5 7 10 9 12 14 12 15 19 19 19 18 16 15 16 16 15 15 13 13 17 21 22 22 19 18 20 20 20 21 22 23 26 26 24 22 17 14 15 17 18 20 21 21 21 20 21 20 19 17 14 11 10 9 8 9 9 9 9 9 9 8 9 11 12 13 14 15 15 15 16 17 18 19 21 22 23 24 25 25 25
9 9 11 8 6 5 5 5 4 6 4 2 3 10 8 8 4 7 12 12 13 16 14 15 17 18 18 18 17 16 17 18 16 15 13 12 14 19 22 23 22 21 23 23 22 22 22 23 25 26 24 23 19 15 17 17 17 20 22 21 20 19 19 18 16 15 14 11 10 9 9 10 10 11 10 10 11 10 11 13 14 14 15 15 15 16 17 18 20 21 22 23 24 24 24 25 26
11 10 12 12 8 6 8 7 4 4 2 2 3 9 6 4 3 8 14 16 16 16 15 14 11 12 16 17 16 15 16 18 16 15 14 11 13 18 22 24 24 22 23 23 22 22 21 22 24 25 24 24 24 19 17 19 20 22 22 21 20 19 18 17 15 14 13 11 9 9 10 10 11 12 12 12 13 13 13 14 14 14 15 15 16 17 18 20 22 23 23 24 24 24 24 25 26
9 4 5 8 6 5 6 6 4 3 2 3 4 6 5 3 2 5 10 12 12 12 11 10 7 8 11 12 14 14 16 17 16 16 16 12 14 19 22 23 23 23 23 22 21 21 21 23 25 24 22 22 25 23 19 21 24 23 22 22 20 19 18 16 14 12 11 10 10 10 10 10 11 13 14 14 14 14 14 15 14 14 15 15 16 18 20 21 23 24 24 24 25 25 25 25 25
6 2 2 6 5 3 2 0 1 3 2 3 4 3 2 1 1 1 2 4 6 8 9 9 9 9 10 11 13 15 16 17 16 16 16 15 16 19 21 22 23 24 23 21 23 25 25 24 23 23 23 23 27 28 23 23 25 24 23 22 20 20 18 17 15 13 11 11 10 10 10 10 12 15 16 16 16 15 15 15 15 15 15 16 18 20 21 22 23 24 24 25 25 24 24 25 24
4 4 6 5 2 4 3 1 3 2 3 3 2 3 2 1 2 2 1 4 7 9 11 13 12 12 13 12 13 15 16 18 17 15 15 16 17 18 21 23 23 25 24 22 24 26 26 25 22 22 26 26 27 29 26 25 25 24 23 22 21 20 18 17 15 14 13 12 11 11 10 11 14 16 17 17 17 16 16 16 16 16 16 17 19 21 22 23 24 24 24 24 24 24 24 24 24
5 8 7 4 3 1 1 2 2 2 6 3 1 4 3 3 3 1 1 5 7 9 12 13 12 13 14 13 13 16 17 18 19 16 15 16 16 17 21 24 24 24 25 25 24 23 25 27 24 25 28 26 26 27 26 26 25 24 24 23 21 20 19 17 15 14 14 13 13 13 11 12 15 17 17 18 18 17 17 17 17 17 17 19 21 21 22 23 23 23 23 23 23 23 24 24 23
3 6 6 4 4 5 2 2 3 4 4 3 2 2 3 5 5 2 5 9 10 11 11 11 13 15 15 13 14 16 18 18 17 17 16 16 16 17 20 24 26 25 24 25 23 22 25 26 24 26 27 27 28 28 26 26 26 26 25 23 22 21 19 18 17 16 15 15 15 14 11 13 17 17 18 19 18 18 18 18 17 18 19 21 21 22 22 22 22 22 22 22 22 22 23 23 22
1 4 6 2 3 5 3 1 1 3 4 3 4 3 3 5 5 5 8 11 12 11 10 12 15 16 15 13 14 16 18 18 17 17 17 17 20 21 21 23 26 24 23 23 22 22 26 25 24 24 24 25 28 28 27 26 26 26 25 24 23 22 21 19 18 17 16 16 16 13 11 15 18 19 19 20 19 19 19 18 18 19 21 22 22 22 22 22 21 21 21 22 22 22 22 22 21
5 8 8 5 2 1 3 2 1 2 3 2 4 5 4 4 5 8 10 10 12 13 13 13 15 15 15 13 14 16 17 18 18 17 17 17 21 22 20 22 25 23 21 22 20 23 26 25 24 25 25 26 28 28 28 27 27 26 25 25 25 24 23 21 20 18 17 17 16 13 13 17 20 19 19 20 19 19 19 19 19 20 21 21 22 22 21 20 20 21 21 22 21 20 21 20 19
9 9 8 8 6 4 6 6 2 1 2 1 2 4 3 2 3 7 9 7 8 12 12 10 10 13 14 12 14 16 17 18 18 18 17 16 18 21 21 21 23 23 22 21 21 25 26 22 23 27 28 29 29 28 28 27 26 26 25 26 26 25 24 23 21 20 19 19 17 14 15 19 20 20 20 20 20 20 20 20 20 20 20 20 20 20 20 19 19 21 22 21 20 19 19 19 17
Wind_Direction
348 350 349 3 134 153 131 36 113 32 69 102 71 91 85 283 313 8 14 11 345 41 50 60 133 134 121 93 105 97 51 350 178 315 359 31 81 158 163 159 155 149 150 153 155 163 169 168 163 158 151 150 153 152 148 143 142 141 139 137 136 136 135 135 133 131 128 126 123 121 121 120 117 112 109 106 99 93 88 84 82 85 89 95 101 105 110 114 114 115 114 109 105 106 111 109 102
347 351 352 357 152 158 164 14 114 49 103 93 84 77 84 246 10 34 12 358 319 340 15 87 117 96 89 98 107 113 68 4 326 321 11 124 148 153 163 157 153 150 151 152 156 162 167 168 165 158 151 152 155 152 147 144 145 144 140 136 136 135 133 132 130 129 128 126 124 124 125 122 119 114 110 107 101 97 94 90 88 89 90 95 103 108 112 116 115 115 113 110 108 109 110 107 104
346 351 355 341 176 178 94 19 70 61 340 65 88 138 242 70 44 20 330 321 306 309 356 136 130 81 110 128 108 77 92 146 203 211 133 156 157 158 161 154 152 151 151 153 157 162 166 168 165 158 152 154 155 150 148 148 148 145 140 137 136 134 131 130 129 128 128 128 128 129 129 124 121 116 113 110 105 104 101 94 95 99 98 99 106 111 112 116 115 113 112 110 110 108 109 108 108
348 355 353 314 183 32 72 38 83 300 297 99 105 165 242 95 50 327 297 296 292 272 275 186 136 44 350 116 91 71 94 167 195 190 164 168 166 153 157 153 152 151 153 154 158 162 164 169 164 157 154 154 152 149 152 152 149 145 141 139 138 137 134 134 132 129 129 132 133 133 129 126 123 119 117 112 110 112 101 95 98 103 109 107 109 112 111 116 115 114 113 111 110 109 112 110 107
345 2 359 348 141 32 95 74 118 295 309 147 109 151 225 140 69 324 299 298 270 218 209 184 104 51 57 64 49 109 58 308 181 186 167 163 161 151 156 154 152 153 154 156 160 161 165 169 163 159 155 150 151 153 156 154 149 146 143 141 141 140 137 136 134 132 133 134 132 132 129 127 123 119 120 119 122 117 101 99 97 96 105 109 112 116 116 120 119 119 117 116 116 113 113 107 97
346 357 9 31 108 136 152 48 90 320 309 176 126 134 185 290 84 19 307 307 270 200 153 52 105 103 95 57 26 55 324 292 148 185 174 158 158 154 155 153 152 153 154 157 161 160 165 169 164 159 151 149 155 158 158 154 151 149 147 146 144 140 138 136 135 135 134 132 130 130 128 128 123 122 123 125 129 116 106 106 102 101 106 111 116 118 117 120 122 123 121 121 121 117 113 103 93
10 350 3 41 85 23 82 336 309 310 301 174 169 114 98 329 27 18 319 322 18 153 48 64 134 121 107 99 134 60 320 280 294 187 168 154 154 154 151 150 149 152 156 158 162 160 165 169 164 155 149 152 159 160 157 153 153 153 151 147 143 139 137 136 136 135 132 131 131 132 132 132 127 125 124 122 124 116 112 112 108 106 106 113 119 120 120 124 127 129 127 126 124 121 114 103 94
26 28 293 39 25 20 93 286 298 216 25 283 278 80 74 305 55 13 309 321 3 62 2 179 176 194 108 168 184 47 3 330 262 180 161 151 150 151 148 150 150 154 158 160 163 160 166 168 159 152 150 156 160 159 156 156 157 156 152 147 144 141 139 138 138 137 136 136 136 137 135 134 132 130 131 125 122 117 112 110 107 100 98 104 110 116 121 127 130 131 132 131 126 121 111 101 93
33 36 222 79 81 59 115 282 316 247 283 290 286 67 83 243 131 239 275 296 314 303 329 186 206 220 131 137 187 43 11 29 135 154 153 147 147 149 148 154 154 157 160 162 162 158 166 166 157 153 153 158 159 158 159 160 160 157 154 151 150 146 144 140 136 138 139 137 136 138 136 137 139 136 134 125 121 119 111 106 105 98 94 95 100 106 112 121 127 129 130 127 122 114 104 96 90
35 23 201 90 140 165 124 206 320 277 270 284 280 126 169 199 192 217 264 299 306 301 18 124 138 124 123 118 65 23 2 110 135 139 143 145 147 148 149 158 159 160 162 162 161 159 167 164 157 155 155 160 161 162 163 161 160 159 156 156 154 147 144 138 133 135 134 129 128 131 132 134 136 133 130 125 123 123 117 112 111 104 98 95 99 103 109 116 121 126 125 120 115 109 103 96 91
45 18 89 133 153 174 192 196 229 267 278 302 267 174 187 188 195 207 246 285 305 287 171 169 145 124 114 110 217 347 153 153 146 142 143 145 147 150 153 158 163 164 164 162 160 162 166 163 159 158 158 162 164 165 165 164 162 160 160 161 155 147 142 136 132 132 128 121 118 119 119 120 122 124 125 125 125 126 126 124 121 114 105 99 99 101 106 111 115 120 119 118 115 109 106 99 93
166 49 46 164 179 190 195 198 218 259 288 304 267 149 160 171 183 186 208 254 252 214 192 201 162 136 122 131 170 149 178 167 151 147 146 147 151 155 158 160 164 164 162 161 161 165 165 162 161 162 163 165 167 167 166 168 167 164 165 163 155 147 140 133 130 127 122 115 111 108 105 106 108 112 116 121 126 129 131 130 127 119 110 104 101 101 102 105 110 114 116 118 116 111 105 99 89
179 137 142 176 196 179 164 191 208 274 279 275 239 137 149 161 165 177 193 237 222 176 192 179 148 132 110 127 196 198 193 177 155 150 149 153 158 160 161 162 163 160 161 162 165 168 166 163 162 164 166 167 170 169 168 170 169 166 163 160 153 145 137 132 130 123 118 112 107 101 96 95 95 97 100 107 119 127 131 131 128 121 114 108 103 101 101 102 105 109 115 119 119 115 106 99 91
175 153 184 180 196 170 155 175 183 229 240 255 237 135 140 145 157 184 194 319 24 52 56 140 147 136 117 145 225 209 192 172 156 152 154 158 161 162 162 161 162 162 165 168 171 170 167 164 162 164 167 168 170 170 171 171 170 165 160 158 151 140 136 134 129 122 118 111 104 99 94 91 90 91 90 94 105 118 128 130 128 121 115 110 103 100 99 99 102 106 112 117 121 120 117 111 101
176 154 157 163 154 186 193 195 190 211 223 258 241 110 91 84 174 186 18 0 51 59 112 119 150 236 164 171 202 192 174 163 158 154 155 158 158 160 161 161 164 167 170 173 174 172 168 165 162 164 166 168 170 171 172 172 171 165 162 156 145 140 139 134 128 122 117 110 104 99 96 94 91 90 87 88 95 106 118 126 128 125 119 112 105 101 97 95 97 101 104 109 114 114 118 125 126
162 128 124 186 182 193 200 182 177 209 218 240 223 91 93 77 19 35 2 345 102 66 25 87 320 319 174 183 156 155 158 157 156 154 154 154 154 155 161 165 168 173 176 177 176 172 169 166 163 164 168 171 172 174 171 170 171 167 161 150 144 144 141 134 128 121 114 109 105 102 99 96 93 90 88 87 90 96 104 114 122 126 124 117 110 103 96 91 89 94 95 99 105 104 109 146 172
141 172 194 201 194 195 183 170 179 199 220 246 251 127 156 128 62 83 53 66 100 69 31 50 357 357 42 128 126 139 149 153 154 155 155 155 156 158 165 171 174 177 178 177 175 174 172 167 165 168 173 175 175 177 173 167 170 166 154 145 142 141 138 133 128 120 114 111 108 106 101 98 94 91 90 87 88 91 97 104 110 117 122 121 115 107 100 95 91 93 99 116 110 86 25 258 168
181 185 208 206 192 187 173 179 185 176 205 244 254 151 172 174 130 145 102 76 91 77 46 33 35 46 75 108 126 137 147 155 158 161 162 163 165 164 170 176 177 178 180 180 180 179 176 171 170 173 176 177 176 177 173 166 168 164 152 147 142 138 136 133 128 121 118 116 112 109 105 102 99 95 91 86 86 89 94 99 102 105 108 110 108 104 101 97 94 92 93 107 94 48 23 41 133
194 163 210 211 183 176 174 182 181 184 201 226 247 129 165 205 137 168 166 122 124 101 54 358 66 77 98 118 131 142 153 160 165 170 169 171 172 171 174 178 181 184 185 182 181 181 179 176 174 175 175 176 177 176 171 166 167 163 155 152 144 139 138 132 125 122 120 118 116 112 109 107 102 97 93 90 88 87 89 94 99 101 102 102 102 99 95 93 90 85 82 90 86 59 49 66 90
197 181 215 206 174 187 194 189 187 202 204 216 240 125 152 191 145 186 166 148 157 148 155 177 165 158 143 141 146 153 162 166 172 177 177 178 179 178 179 182 187 188 186 182 177 178 181 179 175 176 177 177 177 175 169 168 169 165 161 156 146 143 139 133 126 123 121 119 118 113 110 107 101 97 94 96 93 87 86 89 95 97 98 95 93 87 77 77 75 70 67 73 71 60 57 59 42
176 200 214 179 172 197 201 199 199 207 210 217 212 123 171 174 161 173 149 155 187 202 202 199 193 176 163 160 160 163 169 172 179 184 185 187 187 188 188 187 189 186 183 180 173 174 180 179 175 176 180 180 178 175 170 171 172 168 167 158 149 147 141 137 130 123 121 119 117 112 111 108 102 98 95 97 90 84 84 87 92 91 93 87 80 72 60 62 62 56 49 48 51 51 44 27 18
167 208 213 164 175 193 193 199 205 201 201 223 189 176 183 146 142 157 167 199 220 204 215 214 195 172 168 168 166 170 175 179 185 190 193 194 194 197 192 185 185 180 178 178 173 172 177 178 176 177 181 180 180 176 171 174 174 172 174 160 152 151 146 143 135 126 120 115 115 112 113 112 108 102 95 91 82 77 78 86 91 91 98 92 77 67 64 66 59 50 40 36 36 30 19 8 5
205 208 196 177 180 188 186 193 201 190 186 200 199 186 117 130 153 160 201 231 256 252 237 218 193 172 168 166 168 174 180 185 190 195 198 198 200 198 184 178 177 174 173 177 175 172 176 179 178 179 180 181 182 178 173 174 175 175 176 163 155 154 151 147 139 133 125 119 121 113 114 114 110 103 90 86 80 71 75 89 92 94 99 90 79 71 69 63 47 37 28 25 22 19 12 9 9
231 207 182 190 186 192 193 186 193 191 198 195 157 148 138 169 182 167 213 258 276 265 246 208 178 166 164 166 176 181 185 190 195 200 202 201 201 187 172 176 174 170 171 173 174 174 178 179 179 180 180 182 183 182 177 175 176 178 175 166 161 159 156 154 148 142 133 131 129 115 111 108 102 92 79 78 76 69 79 93 99 101 97 86 78 67 54 39 29 26 24 23 20 21 20 20 25
228 208 165 179 187 204 206 191 183 180 202 186 138 189 184 189 168 156 191 275 273 243 191 171 160 162 169 176 183 186 189 194 200 206 208 205 188 168 169 173 171 172 172 170 172 175 181 181 181 182 181 182 184 185 181 176 180 179 175 171 166 166 165 163 160 151 138 137 131 115 100 87 79 74 68 67 69 84 88 88 99 102 97 90 77 52 38 29 27 26 25 25 21 25 26 26 29
216 198 161 169 181 204 212 218 193 163 183 172 181 207 189 170 154 156 207 227 219 174 159 158 161 173 180 185 189 191 194 197 204 208 207 200 173 170 175 174 169 169 170 171 173 176 181 183 184 185 183 184 184 184 181 179 183 180 175 174 169 170 173 174 171 162 155 152 138 111 82 57 49 52 50 52 88 124 110 105 112 107 100 90 70 38 30 29 28 23 20 21 19 23 21 20 25
189 189 180 177 170 189 209 221 208 162 161 179 191 199 154 161 190 195 203 200 179 161 162 162 170 183 187 192 195 196 200 203 207 208 203 195 182 176 176 177 166 158 167 173 175 177 180 183 186 187 186 185 183 181 181 182 182 180 177 174 172 175 177 180 187 187 181 169 152 98 54 21 14 22 18 59 139 145 132 125 120 114 104 85 63 35 23 20 20 18 20 17 14 20 19 17 21
129 175 185 208 210 208 205 205 198 185 202 189 199 217 152 145 223 200 171 180 176 165 168 175 183 190 192 196 197 200 207 211 213 213 208 204 202 190 179 176 165 157 167 176 175 175 178 182 183 184 184 184 182 179 180 183 183 182 180 176 178 183 184 190 203 211 207 192 182 5 358 349 345 343 354 140 142 138 133 130 122 115 103 85 60 32 22 19 22 24 22 18 16 21 25 25 25
125 155 175 199 224 240 218 194 178 188 206 174 172 233 221 187 200 177 161 169 172 171 174 183 194 197 197 200 199 204 211 215 218 218 216 213 208 197 184 175 170 166 169 177 176 174 179 182 182 183 184 185 185 182 183 186 186 184 181 181 186 190 197 207 217 223 215 207 216 275 314 324 326 316 161 144 137 132 131 128 122 113 98 77 45 28 25 19 23 28 24 22 19 21 30 34 34
150 153 179 168 201 234 215 195 179 185 195 157 165 235 229 189 181 155 162 168 169 177 184 188 198 204 204 203 203 208 212 216 219 219 218 214 201 195 187 178 181 176 168 175 178 177 182 185 186 188 187 188 188 186 187 187 182 182 183 183 190 199 211 219 221 221 212 212 225 248 286 306 317 160 148 141 134 132 130 126 119 110 93 65 40 31 27 16 18 29 30 26 21 26 35 36 41
154 152 198 187 205 214 191 188 181 182 194 163 182 241 228 152 152 168 169 174 174 180 188 191 198 205 207 205 207 210 212 217 222 221 217 205 194 192 184 177 182 178 172 179 181 180 184 186 188 190 190 189 188 187 186 186 183 183 183 184 193 206 213 211 208 209 212 220 223 226 222 182 163 149 144 139 135 135 133 126 113 102 82 59 41 33 33 26 26 30 35 33 27 32 38 40 49
159 171 197 202 217 189 158 185 187 184 184 176 189 235 223 149 160 173 175 181 183 185 186 192 200 203 206 206 209 212 214 218 224 225 216 197 195 188 179 176 180 183 182 184 183 182 183 184 186 186 187 188 189 187 184 187 187 182 182 187 196 203 197 190 193 204 216 223 207 199 195 175 164 154 146 139 136 135 129 121 108 95 73 53 35 35 37 35 36 30 31 33 28 32 41 52 64
187 207 203 193 206 196 154 178 197 185 154 188 207 221 160 165 177 173 179 186 190 196 192 196 203 203 207 208 211 214 216 219 224 224 214 195 195 188 178 177 181 185 185 184 183 184 182 181 184 183 183 185 184 181 180 186 187 182 184 189 188 188 187 185 194 204 205 201 184 168 160 154 150 146 144 140 135 128 115 106 99 85 64 46 33 35 33 30 30 19 21 22 20 26 41 66 85
193 209 213 198 197 194 172 147 192 184 170 194 216 220 193 132 178 176 183 188 191 201 199 201 205 205 209 212 216 218 218 222 224 221 212 197 197 192 177 173 180 184 183 184 187 187 181 179 182 181 181 181 175 168 170 181 192 189 184 183 182 184 188 191 197 193 178 170 159 149 143 142 140 130 125 121 115 107 97 91 87 75 60 46 36 33 21 14 7 4 15 10 10 18 30 81 105
189 194 204 202 189 194 182 147 149 177 189 197 200 213 212 161 181 183 188 191 195 204 204 203 206 207 209 213 220 221 223 227 226 217 204 195 196 191 176 167 175 184 184 185 189 189 183 180 181 178 176 175 169 167 173 182 190 187 178 177 181 182 184 189 186 168 156 155 144 136 131 128 124 115 108 103 92 85 81 74 70 66 60 45 30 17 357 346 343 355 7 3 8 5 7 101 120
180 175 176 167 168 191 182 145 161 172 186 199 196 205 200 180 187 188 190 194 200 207 206 205 207 206 207 213 220 222 226 228 225 211 196 196 199 192 178 166 169 179 182 184 188 189 184 182 179 173 174 174 168 171 177 177 173 173 176 177 176 175 178 177 167 155 154 152 134 121 118 119 118 109 101 95 76 67 67 56 49 45 37 16 357 345 332 326 333 344 351 357 8 359 19 121 131
142 142 154 172 171 184 180 172 181 177 187 199 200 204 192 183 190 191 190 192 201 207 206 209 205 201 206 213 219 223 227 229 225 211 199 197 197 191 179 167 166 171 178 184 187 189 187 183 175 167 172 174 171 178 181 174 171 174 176 175 172 169 170 165 155 156 157 147 137 125 117 119 119 110 108 110 88 67 53 30 22 5 350 340 333 327 323 319 323 328 334 355 12 27 79 126 143
135 168 173 181 185 176 179 186 178 186 205 194 184 202 193 186 191 189 188 192 202 205 204 208 205 203 209 215 221 225 227 229 226 215 202 195 190 184 176 167 167 168 175 183 186 189 187 178 166 161 167 170 176 186 186 180 184 187 180 175 171 164 163 160 152 156 157 147 143 137 130 131 129 127 127 125 105 81 41 9 356 340 330 326 325 320 317 313 312 312 317 27 63 76 74 119 156
86 179 173 181 183 152 169 195 129 174 215 186 168 199 196 192 200 192 191 198 207 207 206 209 205 205 210 215 220 222 224 230 229 221 208 201 189 181 175 165 167 171 174 182 188 186 174 166 162 160 162 166 180 191 187 181 184 187 181 174 169 162 160 158 151 151 152 147 144 139 137 135 129 125 117 109 85 32 349 346 336 328 320 316 319 314 310 304 300 299 239 111 97 88 67 83 152
67 169 176 181 169 160 180 189 88 115 217 143 159 180 188 208 212 202 202 207 214 213 212 213 210 211 215 216 219 222 223 229 229 224 215 204 189 183 177 166 167 170 173 182 187 176 161 164 175 176 173 175 183 189 184 180 177 176 175 171 167 161 157 152 145 144 145 143 141 134 132 130 123 119 102 78 24 342 326 337 329 322 317 311 314 308 303 301 294 231 156 142 117 100 75 67 87
210 199 194 166 161 182 159 136 131 100 74 136 142 145 233 205 206 207 203 207 214 211 209 212 212 215 217 214 217 221 224 228 226 221 217 206 191 188 181 168 166 168 172 179 178 167 162 175 188 188 189 183 176 176 179 180 177 172 167 161 156 149 146 145 140 138 139 140 139 134 135 132 126 124 85 29 356 343 327 344 336 326 322 313 314 304 291 306 120 135 147 149 128 112 97 79 73
204 229 228 162 153 161 118 132 151 150 192 181 165 198 221 188 207 212 199 202 211 205 206 212 211 210 210 211 214 218 221 224 225 221 216 206 191 186 178 167 166 168 171 175 172 169 172 181 186 187 186 176 163 169 179 184 179 171 164 156 152 148 145 143 142 143 143 140 136 133 132 124 109 95 50 48 40 23 32 19 6 358 338 322 330 17 136 125 124 132 139 139 128 116 107 93 82
201 203 199 162 119 121 134 155 173 184 195 181 195 225 219 176 214 214 200 204 210 207 211 213 210 206 207 213 215 215 218 218 219 218 213 203 188 178 171 167 167 165 166 167 165 170 174 177 182 183 177 164 159 172 182 186 179 173 171 165 163 162 156 150 150 151 149 144 139 134 126 108 85 76 71 81 93 95 86 75 66 64 92 115 122 128 128 128 128 128 131 129 124 120 113 104 93
193 145 159 166 143 122 141 162 183 201 126 137 199 227 239 231 216 202 196 203 211 213 216 215 215 214 212 214 215 214 215 213 212 211 208 201 188 177 169 167 166 162 162 161 160 167 171 174 182 182 173 164 171 182 187 188 181 174 174 171 168 169 163 154 152 152 149 147 142 130 113 98 93 87 92 104 109 106 97 97 102 113 126 125 125 126 120 120 120 116 116 113 112 115 112 110 103
170 128 142 163 172 159 157 158 144 124 162 197 196 188 220 232 163 173 189 201 214 215 215 217 218 219 217 214 215 216 215 214 213 210 207 201 189 178 168 163 163 161 160 161 163 167 168 174 182 177 173 182 188 192 194 190 183 175 176 176 171 167 162 154 152 151 149 145 136 119 102 99 100 97 105 112 109 107 103 104 115 124 128 128 125 120 115 114 114 113 111 108 106 105 103 103 100
152 151 135 119 149 158 171 208 121 121 217 222 195 180 209 226 135 166 188 202 215 213 214 218 218 220 219 213 209 211 213 214 215 210 206 199 187 175 166 162 162 160 160 164 165 167 167 173 178 174 180 196 196 195 194 187 184 185 185 181 173 165 159 153 149 147 144 141 135 121 113 108 108 114 116 113 109 106 108 111 122 129 128 127 123 118 116 115 113 112 110 109 105 102 99 97 95
137 163 178 130 114 127 138 218 88 188 237 230 190 180 209 232 178 181 193 202 206 201 207 217 220 220 218 213 203 200 209 213 213 209 203 195 182 170 166 164 160 158 164 167 168 170 171 173 175 177 189 202 199 191 191 188 188 192 190 184 178 168 161 155 149 145 144 146 144 131 125 124 125 128 121 116 114 111 116 123 129 131 128 127 123 120 119 116 115 113 110 107 103 99 96 93 90
146 169 190 187 159 161 175 156 160 224 231 232 166 167 201 231 205 190 203 205 199 198 202 209 214 216 212 212 205 201 211 213 209 204 197 191 179 169 169 166 158 162 171 172 171 172 173 173 175 181 191 202 198 184 188 190 186 188 188 185 182 173 166 161 154 151 151 151 147 137 135 135 132 130 125 122 122 123 129 131 132 133 131 128 125 122 120 118 117 114 109 105 100 96 94 91 89
173 169 178 191 189 181 201 193 194 219 223 8 147 162 190 237 226 197 207 209 203 203 208 209 209 208 203 205 205 201 209 210 206 200 192 192 182 170 170 167 159 165 174 175 177 176 173 173 175 179 185 194 196 184 183 187 184 186 189 185 181 176 169 166 160 156 155 151 145 141 141 140 136 135 134 132 132 136 137 135 135 135 132 129 125 122 121 120 118 113 108 103 98 96 93 90 88
185 176 179 191 186 179 197 196 202 225 199 49 168 175 196 242 217 198 204 211 210 207 214 217 211 202 195 197 200 198 202 205 203 198 191 191 185 174 170 166 161 166 174 176 177 175 172 173 177 181 183 188 195 190 179 183 188 190 189 185 182 177 170 167 164 157 154 148 143 143 142 143 143 142 142 141 143 144 141 138 138 135 131 128 125 124 123 121 117 111 106 103 99 96 93 90 87
185 173 181 197 197 191 194 190 191 196 141 100 146 181 205 192 172 200 204 211 214 212 219 225 221 206 192 192 197 198 200 202 201 197 191 188 185 178 170 166 163 168 176 175 170 171 172 176 181 183 179 179 189 191 179 180 188 188 188 187 183 178 173 168 162 155 152 146 142 142 141 146 150 149 148 148 148 148 143 140 138 133 131 129 127 126 125 121 116 111 106 103 99 96 93 90 87
180 124 191 209 204 163 128 153 149 118 114 139 160 211 249 216 338 356 230 228 214 212 219 219 215 197 182 186 193 195 199 201 199 194 189 185 183 177 170 167 165 167 172 170 170 174 175 178 183 182 177 176 186 191 183 181 186 185 185 185 182 180 175 167 159 154 151 146 143 142 141 149 156 153 152 151 151 150 145 141 137 133 131 131 131 129 126 122 116 111 108 103 99 96 92 90 87
152 175 199 196 121 107 122 103 47 78 206 181 174 240 270 242 256 55 92 222 201 202 211 210 205 187 181 190 189 190 197 199 195 190 184 180 180 180 173 168 165 165 167 170 175 177 174 175 180 178 176 177 182 186 183 182 184 182 182 183 182 181 175 167 163 156 152 148 147 147 144 151 159 157 155 154 152 150 147 142 136 133 134 134 133 131 126 123 118 112 109 104 100 96 92 89 87
161 189 179 122 77 69 133 160 125 184 214 197 184 235 222 197 218 93 140 213 205 205 207 204 198 187 190 194 185 186 194 196 192 185 182 178 176 180 176 169 167 167 170 175 177 176 173 175 178 176 176 175 175 178 180 181 183 183 183 182 181 179 174 170 166 159 156 154 153 152 148 156 161 160 159 156 153 151 148 143 137 133 136 136 134 131 127 123 118 113 109 105 101 97 93 90 89
221 185 154 141 189 198 178 167 170 178 205 213 192 226 238 208 206 188 193 205 209 209 202 196 195 195 198 191 181 186 190 190 187 182 183 181 176 177 175 171 169 166 171 175 174 173 174 177 181 181 178 174 174 178 179 180 184 185 182 181 180 177 174 171 166 163 162 159 157 154 154 163 164 163 163 159 155 153 149 143 139 136 138 138 134 131 127 122 118 113 109 105 102 98 95 93 92
276 177 171 187 219 201 181 146 187 191 196 213 202 206 227 208 201 208 209 208 206 197 189 198 202 199 195 185 179 186 187 185 184 182 183 185 183 179 174 171 167 161 165 170 168 171 174 176 179 178 173 170 173 178 179 180 182 182 180 178 177 175 173 170 167 166 165 162 159 156 161 168 167 165 166 162 158 155 151 146 141 139 140 139 135 131 126 122 117 113 111 107 104 100 96 95 95
180 190 190 189 177 192 195 178 192 215 192 191 215 230 230 189 191 209 213 214 207 192 187 200 207 197 188 184 178 181 186 184 181 182 182 185 185 177 166 165 163 157 159 164 164 168 172 173 173 172 171 170 170 173 178 180 179 179 179 178 175 173 172 170 169 169 167 164 160 160 169 171 167 167 167 164 161 157 154 150 143 143 143 141 136 132 126 122 118 115 113 110 106 102 98 97 98
185 195 190 188 182 166 194 200 183 217 225 176 214 257 260 179 193 216 214 216 210 198 196 199 197 189 183 178 177 180 185 183 181 183 182 180 181 172 160 157 157 154 155 160 161 165 169 170 171 173 173 172 169 172 177 178 176 178 179 177 174 173 172 172 172 171 169 166 163 166 174 171 167 168 169 168 165 160 158 154 148 147 147 143 139 133 128 124 120 118 115 112 108 104 101 99 100
Height
783 783 781 780 779 780 781 782 800 808 809 824 826 824 821 815 813 811 808 806 806 802 799 800 797 799 803 806 808 810 813 815 815 822 822 813 812 813 813 814 815 817 818 820 822 823 824 825 825 825 826 828 829 830 830 831 832 833 833 834 834 835 836 837 837 838 839 839 840 840 841 841 841 841 842 842 842 843 843 843 843 843 843 843 843 843 843 844 844 845 845 845 845 846 846 847 847
781 782 779 780 780 783 787 786 810 820 815 828 827 824 820 813 814 815 813 810 807 801 799 800 798 800 801 802 805 810 815 815 813 813 813 812 813 814 815 815 817 819 820 822 823 825 825 826 826 826 827 828 830 831 831 832 833 833 833 834 835 835 836 837 838 839 839 840 840 841 841 841 842 842 842 843 843 843 843 844 844 844 844 844 844 844 844 845 845 845 846 846 846 847 847 848 848
781 781 779 781 781 782 789 792 814 824 820 830 827 822 819 815 816 814 810 806 803 799 800 801 800 803 804 807 808 811 815 814 812 812 812 813 814 814 816 817 818 820 821 823 824 825 826 827 827 827 827 829 831 831 832 833 833 834 834 834 835 836 836 837 838 839 840 841 841 841 842 842 843 843 843 843 844 844 844 844 844 844 845 845 845 845 845 846 846 846 847 847 847 848 848 849 849
782 781 779 779 782 785 795 805 819 823 823 830 827 821 818 816 814 811 806 802 800 799 801 802 803 803 803 810 811 811 814 812 810 811 812 812 813 814 817 818 819 821 822 824 825 826 827 828 828 829 829 830 832 833 833 834 834 835 835 835 835 836 837 838 839 840 841 842 842 842 843 843 843 844 844 844 844 844 844 845 845 845 845 846 846 846 846 847 847 847 847 848 848 849 849 850 850
782 781 779 777 786 794 802 814 821 823 821 823 823 820 815 812 812 810 804 800 800 801 801 802 806 804 803 809 810 812 813 811 809 809 810 812 813 815 817 818 820 822 823 824 825 827 828 829 829 830 830 831 833 834 834 835 835 835 836 836 836 837 838 839 840 841 842 842 843 843 844 844 844 845 845 845 845 845 845 845 845 846 846 846 847 847 847 847 848 848 848 849 849 849 850 850 851
782 781 780 778 788 795 805 817 820 822 816 814 817 816 812 808 810 809 803 800 798 800 801 802 805 806 809 811 809 811 811 810 809 808 810 812 813 815 817 818 820 822 824 825 826 827 828 829 830 830 831 832 834 834 835 835 836 837 837 837 837 838 838 839 840 841 842 843 844 844 845 845 845 845 846 846 846 846 846 846 846 847 847 847 847 848 848 848 848 849 849 849 850 850 851 851 852
782 783 785 787 793 796 811 821 819 822 814 810 813 811 809 806 807 808 806 803 800 800 801 802 802 804 813 813 810 810 809 810 809 809 810 812 813 815 817 819 821 823 824 825 826 827 829 830 830 831 832 833 835 836 836 837 838 838 838 838 839 839 839 840 841 842 843 844 844 845 845 846 846 846 846 847 847 847 847 847 847 847 848 848 848 849 849 849 849 849 850 850 850 851 851 852 852
782 787 793 797 806 808 817 821 817 819 815 810 810 808 808 806 806 808 808 807 804 803 802 802 800 806 813 811 812 811 809 810 809 810 811 812 814 816 818 820 822 823 824 825 826 827 829 830 831 832 833 834 836 837 838 838 839 840 840 840 840 840 840 841 841 842 843 844 844 845 846 846 847 847 847 847 847 847 848 848 848 849 849 849 849 849 849 849 850 850 850 851 851 851 852 852 852
783 790 797 803 814 817 818 821 819 816 813 810 808 807 807 805 806 808 808 807 805 804 804 802 800 808 813 812 813 811 809 811 810 811 812 814 816 817 820 821 822 823 824 825 826 827 829 831 832 832 833 835 837 838 838 839 840 841 842 842 842 841 841 841 842 842 843 843 844 845 846 846 847 847 847 847 847 847 848 849 849 850 850 850 850 850 850 850 850 850 851 851 851 852 852 852 853
788 794 801 808 815 822 824 823 820 815 812 809 808 808 806 805 806 808 808 806 805 804 804 802 802 809 813 816 816 811 812 812 811 813 814 816 818 819 821 822 823 823 824 825 826 828 829 831 832 832 833 835 836 838 839 840 841 842 842 843 843 842 842 842 842 843 843 843 844 845 846 846 846 847 847 846 846 847 847 848 849 850 850 851 851 851 851 851 851 851 851 852 852 852 852 853 853
796 800 801 812 820 826 827 822 820 815 810 809 808 806 805 806 807 809 809 807 805 805 804 802 806 810 813 818 816 811 813 813 813 814 815 818 819 820 820 821 822 823 824 825 827 829 830 831 832 832 832 834 836 837 839 840 841 842 843 843 844 843 843 843 843 843 843 844 844 845 846 846 847 847 847 846 846 846 847 847 848 850 850 851 851 852 852 852 852 852 852 852 852 853 853 853 853
801 806 804 817 822 822 823 820 820 816 812 810 807 804 802 805 808 809 810 808 806 806 804 802 804 806 814 819 814 812 813 813 814 815 817 818 819 820 820 820 822 823 825 826 828 829 831 831 831 832 832 834 836 838 839 840 842 843 844 844 844 844 844 844 844 844 844 845 845 845 846 846 847 848 848 847 847 846 847 847 848 849 850 851 852 852 852 852 853 853 853 852 853 853 853 853 853
800 807 808 817 820 817 821 822 820 818 816 810 804 802 800 803 807 806 806 806 804 807 804 800 800 803 815 819 813 813 813 814 815 815 817 818 819 819 819 820 821 823 825 827 828 829 831 831 831 832 833 835 836 838 840 841 842 843 844 845 845 845 845 844 845 845 845 845 846 847 847 848 848 849 849 849 848 848 848 848 848 849 850 851 852 852 853 853 853 853 853 853 853 853 853 854 854
797 803 805 816 823 820 819 822 820 821 816 805 800 799 799 800 802 800 801 804 804 806 803 798 798 804 815 818 816 813 812 813 814 816 817 818 818 818 819 820 821 823 825 826 827 829 830 830 831 832 833 835 837 839 840 842 843 844 845 845 845 845 845 845 845 845 846 846 847 848 848 849 849 850 850 850 850 850 849 849 849 850 850 851 852 852 853 853 853 853 853 853 853 853 853 853 853
795 800 804 814 824 822 818 819 817 819 814 802 799 797 798 799 798 799 799 803 805 802 799 798 798 804 809 812 813 809 809 812 813 815 816 817 818 818 819 820 821 823 824 826 827 828 829 829 830 832 834 836 838 839 841 842 843 844 845 845 845 846 845 845 845 846 846 846 847 848 849 849 850 850 851 851 851 851 851 851 851 851 851 851 852 852 853 853 853 853 853 853 853 853 853 853 853
794 798 806 812 820 821 817 816 816 818 812 800 797 796 800 800 797 801 799 798 802 800 800 802 800 802 804 804 804 804 807 811 813 815 816 817 818 818 819 820 822 823 824 825 826 828 828 829 830 832 834 836 838 839 841 842 843 844 844 845 846 846 846 845 845 846 846 847 847 848 849 850 851 851 851 852 852 852 852 852 852 852 852 852 852 852 853 853 853 853 853 853 853 853 853 853 853
793 797 807 811 815 816 812 813 814 813 807 798 795 795 801 803 800 800 797 796 802 803 803 804 802 801 802 802 801 802 807 811 813 814 815 817 817 818 819 820 822 823 824 825 826 827 828 828 829 831 834 836 838 840 841 843 844 844 844 845 846 846 846 846 846 846 847 847 848 848 849 850 851 851 852 852 853 853 852 852 852 852 852 852 852 852 852 853 853 853 853 853 853 853 853 853 853
794 800 807 808 809 808 804 806 805 802 802 797 794 795 799 803 802 800 800 803 806 806 806 804 803 802 802 802 802 804 808 810 812 813 814 814 815 815 817 819 821 822 824 825 826 827 827 827 828 830 833 836 838 840 842 843 844 844 845 845 846 847 847 847 847 847 848 848 848 848 849 850 851 852 852 853 853 853 853 852 852 853 853 852 852 852 852 853 853 853 853 853 853 853 853 852 853
793 800 805 802 800 798 794 795 797 797 798 794 792 794 796 798 800 798 803 810 808 809 811 808 807 807 804 804 805 807 808 810 811 811 811 811 811 812 813 816 817 819 820 821 823 824 826 826 827 829 832 836 838 840 841 843 844 845 846 846 846 847 848 848 848 848 848 848 848 849 849 850 851 852 853 853 854 854 854 853 852 853 853 853 853 852 853 853 853 853 853 853 853 853 853 853 853
791 796 799 795 793 794 791 791 792 792 791 792 792 794 796 796 797 797 802 809 808 809 811 809 809 809 807 806 806 808 808 809 810 810 810 809 808 808 809 810 812 813 816 818 819 821 824 826 827 829 832 835 837 839 841 842 844 845 846 846 846 847 848 849 849 849 849 849 849 849 849 850 851 852 852 853 854 854 854 854 853 853 853 853 853 853 853 853 853 853 853 853 853 853 853 853 853
790 791 791 789 791 792 790 789 789 788 789 790 792 795 797 795 795 796 799 806 809 806 803 801 802 804 805 806 806 806 807 808 808 809 808 807 807 806 806 808 811 814 817 818 819 820 824 826 828 830 833 835 837 839 840 842 843 845 846 846 846 847 847 848 849 850 850 850 849 849 849 850 851 851 852 853 854 855 855 854 854 853 853 854 854 854 854 853 854 854 854 853 853 853 853 853 853
788 787 784 784 789 790 787 787 787 787 790 791 793 795 795 794 794 796 797 801 803 799 796 794 794 796 799 801 803 805 806 806 807 807 806 805 804 804 807 811 815 818 820 821 821 822 825 828 829 831 834 836 838 839 840 841 843 845 846 846 846 847 847 848 849 850 850 850 850 850 850 850 850 851 852 852 853 854 855 855 854 853 854 854 854 854 854 854 854 854 854 854 853 853 853 853 852
784 785 784 784 785 786 784 785 786 787 790 792 793 792 793 795 797 798 797 796 796 793 792 791 791 792 795 798 801 802 803 803 804 803 802 802 802 804 809 813 815 817 819 821 823 824 826 828 830 832 834 837 838 839 840 841 843 845 846 846 847 847 848 849 850 850 851 851 851 851 850 850 850 851 851 852 853 854 854 854 854 854 853 854 854 855 855 854 854 854 854 854 854 854 853 853 852
782 782 784 784 784 783 781 782 784 786 788 788 789 791 793 795 797 799 797 795 795 792 789 789 791 793 796 799 799 800 801 801 801 801 800 801 804 807 810 813 814 816 818 821 823 825 827 829 830 832 834 836 838 839 840 841 842 844 845 847 847 848 849 850 850 850 851 851 851 851 850 850 850 850 851 851 852 853 854 854 854 853 853 854 854 855 855 855 855 855 854 854 854 854 853 853 852
782 781 782 783 784 783 780 781 783 786 787 787 790 792 793 793 794 798 797 796 794 790 788 789 791 794 796 798 799 800 800 800 801 800 801 803 806 809 811 813 814 815 818 820 823 825 827 829 831 832 834 836 838 839 840 842 843 844 845 846 847 848 849 850 850 850 851 851 851 851 851 851 850 850 850 851 852 852 853 853 854 854 853 854 854 855 855 855 855 855 855 854 854 854 853 852 852
779 778 781 782 783 782 781 782 783 785 787 787 791 792 792 792 793 797 798 796 793 790 789 790 792 795 796 798 799 799 799 800 799 799 802 805 807 809 811 812 813 815 818 820 822 825 827 829 831 832 834 835 837 839 840 842 843 844 846 846 847 848 849 850 850 850 850 851 851 851 851 851 851 851 850 851 851 852 852 853 853 854 854 854 854 855 855 856 856 856 855 855 854 854 853 852 852
776 778 780 781 782 782 781 782 783 785 786 787 789 791 791 792 794 797 797 794 791 791 792 792 793 794 796 797 798 799 800 799 798 799 802 805 807 809 810 811 813 815 818 820 822 824 827 828 830 832 834 835 837 838 840 842 843 844 845 846 847 848 849 850 850 850 850 850 851 851 851 851 851 851 851 851 851 852 852 853 853 853 854 854 854 854 855 855 856 856 855 855 855 854 853 852 852
776 778 781 782 781 782 782 782 784 785 786 785 786 790 791 795 795 791 792 792 791 792 794 793 793 794 795 796 798 799 799 799 800 801 802 805 807 808 809 811 813 815 817 820 822 824 826 827 829 831 833 835 836 838 839 841 842 843 844 845 847 848 848 849 850 850 850 850 850 850 851 851 851 851 851 851 851 852 852 852 853 853 854 854 854 854 855 855 856 855 855 855 855 854 853 852 852
776 777 782 785 784 783 781 781 783 784 785 782 785 793 792 792 792 787 788 790 791 793 794 794 794 794 794 796 798 798 798 799 800 801 802 804 806 807 809 810 812 814 816 819 821 823 824 826 828 830 832 834 836 837 838 840 841 842 844 845 846 847 848 849 850 850 850 850 850 850 850 851 851 851 851 851 851 852 852 852 853 853 854 854 854 854 854 855 856 855 855 855 854 854 854 853 852
777 778 780 785 790 785 776 779 782 783 783 779 785 795 787 784 789 788 788 788 791 794 794 794 794 794 794 795 797 797 797 798 798 800 802 804 805 806 808 810 812 813 815 818 820 822 823 825 827 829 832 833 835 836 837 839 840 841 843 844 845 846 848 849 850 850 850 850 849 849 850 850 851 851 851 852 852 852 852 852 853 853 854 854 854 854 854 855 855 855 855 855 855 854 854 853 852
778 782 782 783 788 781 771 775 780 783 784 778 784 792 781 781 790 788 788 788 789 792 793 793 793 793 793 794 795 796 795 796 797 799 802 803 804 806 807 809 811 813 814 816 818 820 822 824 826 829 831 833 834 835 837 838 839 841 842 843 845 846 847 848 849 850 850 849 849 849 849 850 851 851 852 852 852 852 852 852 853 853 853 854 854 854 854 855 855 855 855 855 855 855 854 853 853
777 783 785 782 781 776 771 773 774 778 782 778 783 790 782 781 789 787 786 788 788 790 791 792 792 792 792 793 794 794 795 795 796 799 801 802 803 805 807 809 811 813 814 816 818 820 821 823 825 828 830 832 834 835 837 838 839 840 841 843 844 846 846 847 848 849 849 849 849 849 849 850 850 851 852 852 852 852 853 853 853 853 853 854 854 854 854 855 855 855 855 855 855 855 855 854 854
778 776 777 778 777 775 773 774 771 770 778 780 780 785 784 782 785 786 786 787 789 790 791 791 791 791 791 791 792 793 794 795 795 797 799 801 803 804 806 808 811 813 814 816 818 819 821 823 825 827 829 831 833 835 838 840 842 841 841 842 844 845 846 847 847 848 848 848 848 849 849 850 850 851 852 852 853 853 853 853 853 853 854 854 854 854 854 855 855 855 855 855 855 855 855 855 855
777 773 770 771 772 773 773 775 773 769 774 780 779 780 784 786 785 784 785 786 789 789 789 790 790 791 791 791 792 792 794 794 793 795 798 800 802 804 805 808 810 812 814 815 817 819 820 822 824 825 828 830 832 834 837 840 843 843 841 842 843 844 845 846 847 847 847 847 848 848 849 850 850 851 852 852 853 853 853 853 853 853 854 854 854 854 854 855 855 855 855 855 855 855 855 855 856
767 770 771 772 773 774 772 771 772 771 772 776 781 781 781 787 787 783 784 785 786 787 787 789 790 791 791 791 791 791 791 791 791 794 797 799 801 803 805 807 810 811 813 815 817 818 819 821 822 824 826 828 830 833 835 837 840 842 842 842 842 843 844 845 846 847 847 847 847 848 849 850 850 851 852 853 853 853 853 853 853 853 854 854 854 854 855 855 855 855 855 855 855 855 855 855 856
759 766 770 773 776 777 771 768 768 768 772 774 776 777 777 784 787 782 783 784 785 787 788 789 790 791 791 790 790 789 789 789 791 794 796 798 801 803 805 806 808 810 812 814 815 817 818 819 821 822 823 826 829 832 834 836 838 840 841 841 842 842 843 844 845 847 848 848 848 848 849 850 851 851 852 853 853 853 853 853 853 853 854 854 854 855 855 855 855 855 854 855 855 855 854 854 856
760 766 771 772 774 777 772 768 767 765 769 772 770 771 774 781 784 781 781 783 786 787 788 789 790 790 790 790 789 788 788 789 791 794 795 798 800 802 804 805 807 809 811 812 814 814 816 818 819 820 822 825 828 830 832 834 836 837 839 840 841 842 843 843 844 846 847 848 848 848 849 850 851 851 852 852 853 853 854 853 853 853 853 854 854 855 855 855 855 855 854 855 855 855 854 854 855
761 763 769 772 771 773 770 766 767 766 766 771 774 774 775 779 781 780 781 784 785 784 785 787 787 788 788 788 788 787 788 789 791 792 794 797 799 801 803 804 806 808 809 810 811 813 815 817 818 820 822 826 828 829 830 832 833 835 837 839 840 842 843 843 844 846 847 847 848 848 849 850 851 852 852 852 853 853 853 853 853 853 853 854 854 855 855 855 855 855 855 855 855 855 854 854 854
765 762 765 772 768 768 772 768 769 769 767 775 781 778 779 781 780 779 780 781 781 779 781 783 784 787 787 787 787 787 789 790 790 791 794 797 799 801 802 803 805 806 807 809 810 812 814 817 819 821 824 826 828 829 830 831 832 834 836 838 839 841 844 844 844 845 846 847 848 848 849 850 851 851 852 852 852 853 853 853 853 853 853 854 855 855 855 855 855 854 855 855 856 855 854 854 853
768 765 764 768 767 767 771 773 776 773 770 777 780 781 786 786 782 780 779 779 779 778 779 780 782 784 784 785 786 788 789 789 789 791 792 795 798 800 801 802 803 805 806 807 809 812 814 817 820 821 823 826 828 828 830 831 832 834 836 837 839 842 844 845 845 846 846 847 848 849 850 850 851 851 852 852 852 852 852 853 853 853 854 854 855 855 855 855 854 854 855 855 856 856 855 854 853
770 769 765 765 766 765 765 772 776 775 776 775 776 787 791 786 785 784 780 780 780 779 780 781 781 782 782 784 786 787 788 788 789 790 791 793 796 799 800 801 802 803 804 806 809 811 814 818 819 819 822 825 827 828 829 830 831 834 836 838 841 843 844 845 844 845 846 847 847 849 850 850 851 851 852 852 852 852 852 853 853 853 854 854 855 855 855 855 854 855 855 856 856 856 855 855 854
770 770 766 764 764 764 767 771 771 776 782 773 772 786 788 783 785 783 781 783 783 781 781 782 782 782 783 784 784 785 786 786 787 788 790 792 795 798 799 800 801 802 804 806 808 811 814 816 817 818 821 824 826 827 828 829 831 833 835 837 840 842 843 844 844 845 846 847 847 848 849 850 851 851 851 851 851 851 852 852 853 853 854 854 855 855 855 855 855 855 856 856 856 856 856 855 855
770 764 763 766 765 765 770 769 766 773 779 771 769 776 781 786 785 778 777 782 783 781 781 780 781 782 783 782 782 782 783 785 786 788 789 791 793 796 797 798 800 801 803 806 808 810 813 814 815 817 819 822 825 826 827 828 829 832 834 836 838 840 841 842 843 844 845 847 847 848 849 850 851 851 851 851 851 852 852 853 853 854 854 855 856 856 856 856 856 856 857 856 856 856 856 856 856
766 759 761 767 766 767 770 767 767 771 773 774 774 772 776 781 776 771 775 780 781 781 780 779 778 778 779 779 779 779 781 783 785 786 787 789 791 793 795 797 799 801 803 805 807 809 811 813 814 816 819 821 822 823 824 826 828 831 833 835 837 839 840 841 843 844 846 847 847 848 849 850 850 850 851 851 851 852 852 853 853 854 855 856 856 857 857 857 857 857 857 857 857 856 856 856 856
761 757 761 764 765 767 766 765 768 771 774 776 775 775 776 774 770 771 774 778 779 776 775 775 774 773 773 774 774 776 778 780 782 784 785 787 789 792 794 796 798 800 802 804 806 808 810 812 814 816 818 819 819 821 823 826 829 831 833 835 837 839 840 841 843 844 846 847 847 848 849 849 850 850 851 851 852 852 853 853 854 855 856 857 857 858 858 858 858 858 858 858 858 857 857 856 856
756 756 761 763 764 766 765 766 768 773 779 773 766 770 772 771 775 778 776 776 772 768 768 767 766 767 767 768 771 773 776 778 780 781 783 785 788 790 792 795 797 799 801 804 805 808 809 811 813 816 817 816 817 820 823 827 829 830 832 834 836 838 839 840 842 844 845 847 847 848 849 849 850 851 851 852 852 853 853 854 855 856 857 857 858 858 859 859 859 859 859 859 859 858 858 857 857
754 756 760 765 768 767 769 769 768 778 781 766 757 763 768 769 772 772 769 763 758 759 763 762 760 760 761 764 767 769 773 775 777 779 781 784 786 788 791 793 795 798 801 803 804 807 808 810 813 815 815 815 817 820 824 827 827 827 830 832 834 835 837 839 841 843 845 846 848 848 849 850 851 851 852 852 853 854 854 855 856 857 858 859 859 860 860 860 860 861 861 861 860 860 859 859 859
754 755 757 768 773 771 774 775 777 783 777 763 758 762 771 772 763 759 756 750 749 753 755 755 754 754 756 759 762 764 768 771 774 776 779 782 784 786 789 791 793 796 800 802 804 806 808 809 812 814 815 816 818 820 823 826 827 828 830 831 833 835 836 839 840 842 844 846 848 849 850 851 851 852 852 853 854 855 856 857 858 859 860 860 860 861 861 861 861 862 862 862 861 861 861 861 860
752 753 758 770 777 780 785 781 780 779 770 770 769 763 770 766 749 747 750 746 745 744 742 742 744 746 750 754 756 758 763 767 770 773 776 780 781 782 785 788 791 795 799 801 803 804 806 809 811 813 815 817 819 821 822 825 826 828 829 830 833 835 837 838 840 842 844 846 847 848 849 850 851 852 853 854 855 856 857 858 860 860 861 861 861 861 862 862 862 863 863 863 863 862 862 862 862
748 748 753 761 770 783 789 780 777 776 768 773 773 763 764 757 740 738 741 740 738 736 736 736 737 742 746 749 752 754 758 763 767 770 773 776 779 780 783 786 789 793 797 800 802 805 807 809 810 811 813 816 819 820 821 824 826 827 829 830 833 835 837 839 840 842 844 845 847 848 849 850 851 852 853 855 856 858 859 860 861 861 862 862 862 862 862 863 863 864 864 864 864 864 864 863 863
744 742 745 751 756 767 776 771 771 774 769 772 775 767 759 750 741 735 732 732 733 734 735 735 737 741 743 747 750 753 757 761 764 767 770 773 776 778 781 784 787 791 796 799 802 805 807 809 809 810 812 815 818 820 821 823 825 827 829 831 833 835 837 839 841 842 844 845 846 847 849 850 851 853 854 856 857 858 860 861 862 862 862 862 863 863 864 864 865 865 865 865 865 865 865 865 865
746 743 747 750 744 749 765 770 767 768 768 771 773 764 749 740 738 738 737 736 735 737 737 738 739 740 743 747 748 750 755 757 760 764 767 770 774 777 779 782 785 789 794 798 800 802 804 807 808 809 813 816 818 819 820 822 824 826 829 831 834 835 837 839 841 843 844 845 847 848 849 850 851 853 854 856 858 859 861 862 863 863 863 863 864 864 865 865 866 866 866 866 866 866 866 866 866
748 749 749 744 738 742 760 774 774 770 768 768 769 760 747 740 738 740 742 739 737 739 737 736 738 738 742 744 744 747 750 753 756 760 763 767 771 774 777 780 783 787 791 794 797 798 800 803 806 809 813 816 817 818 820 821 823 826 829 831 833 835 837 839 840 842 844 845 847 848 849 851 852 853 855 857 858 860 862 862 863 864 864 865 865 866 867 867 867 867 867 867 867 868 867 867 868
745 750 743 738 743 745 751 765 774 773 769 766 766 761 753 749 745 741 742 740 737 737 735 734 736 737 739 740 740 743 745 749 753 756 761 764 768 772 775 777 781 784 788 791 795 797 798 801 804 808 811 814 816 818 819 821 824 826 828 830 833 835 837 839 840 842 844 845 847 848 850 851 852 854 855 857 859 860 862 863 864 864 865 866 867 867 868 868 868 868 868 868 869 869 869 869 870
738 738 732 737 749 753 753 762 769 772 772 767 763 765 760 750 742 736 737 736 733 733 734 734 735 734 734 735 738 741 743 747 751 754 759 762 765 770 773 775 778 782 786 790 794 797 797 799 802 806 809 812 814 817 819 821 823 825 827 830 832 834 836 839 840 842 844 845 847 848 850 851 852 854 855 857 859 861 862 863 864 865 866 867 868 868 868 869 869 869 869 870 870 870 870 871 872
737 734 733 737 742 745 749 757 758 760 769 767 761 762 755 740 731 727 727 725 724 729 733 732 730 728 729 731 734 737 741 745 748 752 756 759 763 768 771 774 777 780 785 788 792 795 796 798 801 805 809 811 813 816 818 821 822 824 827 829 831 834 836 838 840 842 843 845 847 848 849 851 852 854 856 857 859 861 862 863 865 866 867 868 868 869 869 870 870 870 871 871 872 872 872 873 874
739 738 740 741 741 741 744 751 751 749 759 766 764 757 742 726 721 718 716 715 716 721 725 724 722 723 725 727 729 733 738 742 745 749 754 757 761 766 770 773 776 779 783 787 790 793 795 798 801 804 807 810 812 815 817 819 822 824 826 828 831 834 836 838 840 841 843 845 846 848 849 851 852 854 856 858 859 861 862 864 865 867 868 868 869 870 870 871 871 871 872 872 873 874 874 875 875
733 735 738 738 740 744 749 756 754 746 751 758 761 756 734 715 714 712 707 707 709 713 716 717 718 720 723 726 728 732 736 739 743 747 752 756 759 764 768 772 775 778 781 786 789 791 794 797 800 803 806 809 811 813 816 818 821 823 826 828 831 833 835 837 839 840 842 844 846 847 849 850 852 854 856 858 859 861 863 864 866 867 868 869 870 870 871 872 872 872 873 874 875 875 876 876 876